[[{"header":{"parameterUnit":"m.s-1","parameterCategory":1,"la1":30.2991,"la2":30.254,"lo1":-89.0895,"lo2":-89.0444,"dy":0.0017,"dx":0.0017,"nx":28,"ny":28,"refTime":"2023-08-09T21:00:00:Z","depth":0,"parameterNumber":2,"parameterNumberName":"U-component_of_WINDS"},"data":[0,0,0,0,0,0,0,0,0,0,0,0,0,0,0,0,0,0,0,0,0,0,0,0,0,0,0,0,0,0,0,0,0,0,0,0,0,0,0,0,0,0,0,0,0,0,0,0,0,0,0,0,0,0,0,0,0,0,5.5424,5.5425,0,5.5521,5.5522,5.5523,5.5501,5.5499,5.5497,5.5496,5.5594,5.5599,5.5603,0,0,0,0,0,0,0,0,0,0,0,0,0,5.522,5.5224,5.5424,5.5426,5.5427,5.5521,5.5522,5.5524,5.5501,5.5499,5.5497,5.5495,5.5593,5.5598,5.5603,0,0,0,0,0,0,0,0,0,0,0,0,0,5.5312,5.5225,5.5424,5.5427,5.5428,5.5521,5.5522,5.5524,5.5502,5.5499,5.5496,5.5494,5.5591,5.5598,5.5604,5.5699,0,0,5.5624,5.5627,0,0,0,0,0,0,0,0,5.5306,5.5319,5.5425,5.5427,5.5429,5.5496,5.5486,5.5583,5.5503,5.5474,5.5496,5.5492,5.5564,5.5573,5.5597,5.5704,5.5708,5.5625,5.5628,5.5631,5.5633,0,0,0,0,0,0,0,5.53,5.5315,5.5463,5.5427,5.5429,5.5423,5.5433,5.5504,5.5533,5.5476,5.5475,5.5487,5.5564,5.5591,5.5599,5.571,5.5624,5.563,5.5634,5.5637,5.5899,5.5902,0,0,0,0,0,0,5.5293,5.531,5.5459,5.5465,5.5359,5.5429,5.544,5.5477,5.5532,5.5538,5.5489,5.5485,5.5581,5.5591,5.5602,5.5717,5.5631,5.5637,5.5641,5.5896,5.59,5.5903,0,0,0,0,0,0,5.5288,5.5306,5.5456,5.5387,5.5406,5.5436,5.5477,5.5481,5.5507,5.5542,5.5547,5.551,5.5579,5.5593,5.5675,5.572,5.564,5.5646,5.5893,5.5898,5.5902,5.5947,0,0,0,0,0,0,5.5282,5.5305,5.5341,5.5388,5.541,5.5527,5.548,5.5485,5.5518,5.5514,5.5563,5.5569,5.5578,5.5666,5.5682,5.5727,5.5651,5.5889,5.5895,5.59,5.5941,5.5952,5.5961,0,0,0,0,0,5.5275,5.535,5.5343,5.5361,5.5456,5.553,5.5542,5.5551,5.5522,5.5559,5.5581,5.5567,5.5713,5.5674,5.5692,5.574,5.5886,5.5893,5.59,5.5937,5.595,5.5961,0,0,0,0,0,0,5.5307,5.5356,5.5349,5.5442,5.5482,5.5526,5.5572,5.5565,5.5614,5.5608,5.5617,5.5628,5.5712,5.5735,5.5691,5.5835,5.5795,5.5806,5.5817,5.583,5.584,5.5832,5.5657,0,0,0,0,0,5.5325,5.5381,5.5421,5.5499,5.5519,5.5543,5.5575,5.5579,5.562,5.5637,5.5666,5.5707,5.5761,5.5797,5.585,5.5945,5.5955,5.5987,5.5997,5.6005,5.6014,5.6065,5.6079,5.5926,5.5926,5.5926,0,0,5.5362,5.5396,5.5431,5.5506,5.5537,5.5595,5.5557,5.5619,5.5662,5.5646,5.5725,5.5748,5.5794,5.5883,5.5924,5.5905,5.6059,5.6014,5.602,5.6025,5.6074,5.6088,5.6101,5.5931,5.593,5.5929,0,0,5.5459,5.5491,5.5559,5.5591,5.5639,5.5655,5.5671,5.5717,5.5731,5.5811,5.58,5.5851,5.5945,5.5978,5.6008,5.6118,5.6106,5.6135,5.6187,5.6237,5.6249,5.6259,5.6297,5.6311,5.6144,5.6144,5.6144,0,5.5499,5.5586,5.5595,5.5658,5.5691,5.568,5.5748,5.578,5.5842,5.5865,5.5843,5.5961,5.5992,5.6088,5.6114,5.6139,5.6157,5.6128,5.6246,5.6257,5.6267,5.6303,5.6318,5.6147,5.6146,5.6146,5.6146,0,5.5632,5.5692,5.5741,5.5802,5.584,5.5906,5.5925,5.5963,5.5963,5.5981,5.6061,5.6098,5.6157,5.6181,5.6182,5.6277,5.6263,5.6244,5.6203,5.6285,5.6319,5.6333,5.6151,5.615,5.6149,5.6148,0,0,5.575,5.5816,5.5833,5.5861,5.5913,5.596,5.6025,5.6083,5.6115,5.6159,5.6213,5.6293,5.6276,5.6309,5.6314,5.6358,5.6441,5.6333,5.6334,5.635,5.6547,5.6559,5.6575,5.6435,5.6437,5.644,5.6542,0,5.5851,5.5965,5.5976,5.6078,5.6133,5.6124,5.6181,5.6219,5.6237,5.6286,5.6307,5.6363,5.6336,5.6356,5.6399,5.6422,5.648,5.6415,5.6484,5.6486,5.6471,5.6593,5.6607,5.6702,5.6556,5.6558,5.656,0,5.5983,5.6031,5.6139,5.6183,5.6207,5.6258,5.6311,5.6359,5.6402,5.6412,5.645,5.6448,5.6515,5.6474,5.6565,5.652,5.6549,5.6565,5.6569,5.6574,5.6526,5.66,5.6733,5.6746,5.6581,5.6579,5.6578,0,5.6056,5.6148,5.6224,5.6248,5.6303,5.6338,5.6363,5.6403,5.6437,5.6485,5.6506,5.6561,5.659,5.6633,5.6646,5.6615,5.6736,5.6696,5.6746,5.6745,5.677,5.6768,5.6907,5.6792,5.6792,5.6792,5.6791,0,5.6166,5.6232,5.6258,5.6305,5.6379,5.639,5.6463,5.6485,5.6521,5.6572,5.6568,5.6615,5.6631,5.6682,5.6693,5.6766,5.678,5.6789,5.6791,5.6788,5.6787,5.6806,5.6799,5.6796,5.6795,5.6794,5.6793,0,5.626,5.628,5.6363,5.6408,5.642,5.6473,5.6511,5.6556,5.6574,5.6638,5.6653,5.6681,5.674,5.6758,5.6829,5.6837,5.6922,5.6919,5.6907,5.6906,5.6954,5.6949,5.7109,5.713,5.7003,5.7004,5.7005,0,5.6328,5.6379,5.6429,5.6463,5.6489,5.6543,5.6578,5.6592,5.6628,5.6681,5.6719,5.6777,5.6824,5.6919,5.6945,5.6999,5.6996,5.7049,5.7004,5.7,5.6995,5.6991,5.6995,5.7057,5.7058,5.7059,5.706,0,5.6446,5.6454,5.6504,5.6558,5.66,5.6643,5.6684,5.6712,5.6732,5.6773,5.6833,5.6869,5.6942,5.6999,5.7054,5.7079,5.7073,5.7074,5.7088,5.7085,5.7075,5.7079,5.6928,5.707,5.7069,5.7068,5.7068,5.7067,5.6528,5.6572,5.6614,5.6671,5.6703,5.6742,5.6786,5.681,5.686,5.692,5.6925,5.699,5.7032,5.7105,5.7133,5.7183,5.7168,5.7188,5.7193,5.7198,5.72,5.7069,5.7193,5.7193,5.7193,5.7193,5.7193,0,5.6644,5.6671,5.6723,5.6781,5.6825,5.6816,5.6862,5.6899,5.6956,5.6996,5.7042,5.7111,5.7166,5.7198,5.7253,5.7287,5.7286,5.7301,5.7298,5.7303,5.7212,5.7193,5.7302,5.7302,5.7302,5.7302,5.7302,5.7302,5.6709,5.6783,5.6796,5.6886,5.6912,5.6976,5.7002,5.7038,5.707,5.7146,5.7193,5.7213,5.7249,5.7307,5.7358,5.7365,5.7385,5.7402,5.7408,5.7321,5.731,5.7299,5.7282,5.7407,5.7407,5.7495,5.7495,5.7496]},{"header":{"parameterUnit":"m.s-1","parameterCategory":1,"la1":30.2991,"la2":30.254,"lo1":-89.0895,"lo2":-89.0444,"dy":0.0017,"dx":0.0017,"nx":28,"ny":28,"refTime":"2023-08-09T21:00:00:Z","depth":0,"parameterNumber":3,"parameterNumberName":"V-component_of_WINDS"},"data":[0,0,0,0,0,0,0,0,0,0,0,0,0,0,0,0,0,0,0,0,0,0,0,0,0,0,0,0,0,0,0,0,0,0,0,0,0,0,0,0,0,0,0,0,0,0,0,0,0,0,0,0,0,0,0,0,0,0,2.3576,2.3577,0,2.3602,2.3602,2.3602,2.3599,2.3599,2.3598,2.3598,2.3622,2.3623,2.3624,0,0,0,0,0,0,0,0,0,0,0,0,0,2.3523,2.3524,2.3576,2.3577,2.3577,2.3602,2.3602,2.3602,2.3599,2.3599,2.3598,2.3598,2.3622,2.3623,2.3624,0,0,0,0,0,0,0,0,0,0,0,0,0,2.3547,2.3524,2.3576,2.3578,2.3579,2.3602,2.3602,2.3602,2.3599,2.3599,2.3598,2.3597,2.3621,2.3623,2.3624,2.3646,0,0,2.3629,2.363,0,0,0,0,0,0,0,0,2.3546,2.3549,2.3578,2.3578,2.3579,2.3597,2.3592,2.3617,2.3599,2.3591,2.3598,2.3597,2.3614,2.3616,2.3622,2.3647,2.3648,2.3629,2.363,2.3631,2.3631,0,0,0,0,0,0,0,2.3544,2.3548,2.3586,2.3578,2.3579,2.3577,2.358,2.3597,2.3606,2.3592,2.3592,2.3595,2.3614,2.3621,2.3623,2.3648,2.3629,2.363,2.3631,2.3632,2.3691,2.3692,0,0,0,0,0,0,2.3542,2.3546,2.3586,2.3587,2.356,2.3579,2.3582,2.3592,2.3606,2.3607,2.3596,2.3595,2.3618,2.3621,2.3623,2.3649,2.3631,2.3632,2.3633,2.3691,2.3691,2.3692,0,0,0,0,0,0,2.3541,2.3545,2.3585,2.3567,2.3572,2.358,2.3591,2.3592,2.3599,2.3608,2.361,2.3601,2.3618,2.3621,2.364,2.365,2.3633,2.3634,2.369,2.3691,2.3692,2.3701,0,0,0,0,0,0,2.3539,2.3545,2.3554,2.3567,2.3573,2.3602,2.3592,2.3593,2.3602,2.3601,2.3613,2.3615,2.3618,2.3638,2.3642,2.3652,2.3635,2.3689,2.369,2.3691,2.37,2.3702,2.3704,0,0,0,0,0,2.3537,2.3556,2.3555,2.3559,2.3584,2.3602,2.3605,2.3609,2.3603,2.3611,2.3617,2.3614,2.3648,2.364,2.3644,2.3655,2.3688,2.369,2.3691,2.3699,2.3701,2.3704,0,0,0,0,0,0,2.3543,2.3557,2.3556,2.3579,2.359,2.3602,2.3613,2.3612,2.3624,2.3622,2.3625,2.3628,2.3647,2.3653,2.3643,2.3676,2.3667,2.367,2.3671,2.3674,2.3676,2.3674,2.3637,0,0,0,0,0,2.3547,2.3562,2.3573,2.3592,2.3597,2.3604,2.3612,2.3614,2.3624,2.3629,2.3636,2.3646,2.3658,2.3667,2.3679,2.37,2.3702,2.371,2.3712,2.3713,2.3715,2.3726,2.3729,2.3697,2.3697,2.3697,0,0,2.3556,2.3565,2.3574,2.3593,2.3601,2.3615,2.3608,2.3623,2.3633,2.3631,2.3649,2.3655,2.3665,2.3686,2.3695,2.3691,2.3725,2.3715,2.3717,2.3717,2.3728,2.3731,2.3733,2.3698,2.3698,2.3698,0,0,2.3578,2.3587,2.3603,2.3611,2.3624,2.3628,2.3632,2.3644,2.3648,2.3666,2.3665,2.3676,2.3698,2.3706,2.3713,2.3737,2.3734,2.3741,2.3752,2.3762,2.3764,2.3767,2.3774,2.3777,2.3742,2.3743,2.3743,0,2.3586,2.3608,2.3612,2.3627,2.3635,2.3634,2.365,2.3657,2.3673,2.3678,2.3674,2.3701,2.3708,2.373,2.3735,2.3741,2.3745,2.3739,2.3764,2.3766,2.3768,2.3776,2.3779,2.3743,2.3743,2.3743,2.3743,0,2.3617,2.3632,2.3644,2.3659,2.3669,2.3684,2.3689,2.3698,2.3699,2.3703,2.3721,2.373,2.3744,2.3749,2.375,2.377,2.3767,2.3763,2.3755,2.3772,2.3779,2.3782,2.3744,2.3744,2.3744,2.3743,0,0,2.3644,2.3661,2.3665,2.3672,2.3685,2.3696,2.3711,2.3725,2.3732,2.3742,2.3754,2.3773,2.3769,2.3776,2.3778,2.3787,2.3804,2.3782,2.3782,2.3785,2.3826,2.3829,2.3832,2.3803,2.3804,2.3804,2.3825,0,2.3667,2.3694,2.3697,2.3721,2.3734,2.3733,2.3746,2.3755,2.3759,2.377,2.3775,2.3787,2.3782,2.3786,2.3795,2.38,2.3813,2.3799,2.3813,2.3814,2.381,2.3836,2.3839,2.3858,2.3828,2.3828,2.3829,0,2.3697,2.3709,2.3734,2.3745,2.375,2.3762,2.3774,2.3785,2.3795,2.3797,2.3805,2.3805,2.382,2.3811,2.383,2.3821,2.3827,2.383,2.3831,2.3832,2.3822,2.3837,2.3865,2.3867,2.3833,2.3833,2.3833,0,2.3713,2.3735,2.3753,2.3758,2.3772,2.378,2.3785,2.3795,2.3802,2.3813,2.3817,2.3829,2.3836,2.3844,2.3847,2.3841,2.3866,2.3858,2.3868,2.3867,2.3873,2.3872,2.3901,2.3878,2.3878,2.3877,2.3877,0,2.3738,2.3753,2.376,2.3771,2.3787,2.3791,2.3807,2.3812,2.382,2.3831,2.383,2.3841,2.3844,2.3855,2.3857,2.3872,2.3875,2.3877,2.3877,2.3876,2.3876,2.388,2.3879,2.3878,2.3878,2.3878,2.3878,0,2.3759,2.3764,2.3783,2.3794,2.3797,2.3808,2.3817,2.3827,2.3831,2.3845,2.3848,2.3854,2.3867,2.387,2.3885,2.3887,2.3904,2.3903,2.3901,2.3901,2.391,2.3909,2.3942,2.3946,2.3921,2.3921,2.3921,0,2.3774,2.3785,2.3797,2.3805,2.3811,2.3823,2.3831,2.3834,2.3842,2.3854,2.3862,2.3874,2.3884,2.3904,2.3909,2.392,2.3919,2.393,2.3921,2.392,2.3919,2.3918,2.3918,2.3932,2.3932,2.3932,2.3932,0,2.38,2.3802,2.3813,2.3826,2.3835,2.3845,2.3854,2.386,2.3864,2.3873,2.3886,2.3894,2.3909,2.392,2.3931,2.3936,2.3935,2.3935,2.3938,2.3937,2.3935,2.3936,2.3905,2.3934,2.3934,2.3934,2.3934,2.3934,2.3818,2.3828,2.3837,2.385,2.3857,2.3866,2.3875,2.3881,2.3892,2.3904,2.3905,2.3919,2.3927,2.3942,2.3947,2.3957,2.3954,2.3958,2.3959,2.396,2.3961,2.3934,2.396,2.396,2.3959,2.3959,2.3959,0,2.3843,2.3849,2.3861,2.3874,2.3884,2.3882,2.3892,2.39,2.3912,2.392,2.393,2.3944,2.3955,2.3961,2.3972,2.3979,2.3978,2.3981,2.3981,2.3982,2.3963,2.3959,2.3982,2.3982,2.3982,2.3982,2.3982,2.3982,2.3858,2.3874,2.3877,2.3896,2.3902,2.3916,2.3921,2.3929,2.3935,2.3951,2.3961,2.3965,2.3972,2.3983,2.3993,2.3995,2.3998,2.4002,2.4003,2.3985,2.3983,2.3981,2.3977,2.4003,2.4003,2.402,2.402,2.402]}]]